Flag for U.S.A. Weather past 2 weeks in Post Falls, Idaho, U.S.A.

Now
79 °F

Sunny.


Feels Like: 80 °F
Forecast: 61 / 85 °F
Wind: 7 mph from Southeast

Location: Coeur d'Alene Weather Reporting System

Current Time: Jul 23, 2014 at 11:52:51 AM

Latest Report: Jul 23, 2014 at 11:15 AM


Visibility: 10 mi

Pressure: 29.96 "Hg

Humidity: 48%

Dew point: 57 °F

Location of Post FallsLocation

Historic Weather in Post Falls — Graph

°F

Post Falls temperature yesterday

Maximum temperature yesterday: 73 °F (at 5:55 PM)
Minimum temperature yesterday: 59 °F (at 4:35 AM)
Average temperature yesterday: 64 °F

Past Weeks' High & Low Weather Summary

 TemperatureHumidityPressure
High97 °F (Jul 13, 2:55 PM)88% (Jul 22, 9:55 AM)30.16 "Hg (Jul 22, 9:55 AM)
Low54 °F (Jul 21, 5:35 AM)10% (Jul 10, 9:35 AM)29.74 "Hg (Jul 17, 7:55 PM)
Average74 °F49%29.95 "Hg
* Reported Jul 8 10:15 AM — Jul 23 10:35 AM, Post Falls, Weather by CustomWeather, © 2014

Note: Actual official high and low records may vary slightly from our data, if they occured in-between our weather recording intervals... More about our weather records

Advertising

Post Falls weather history for previous 24 hours

 ConditionsComfort  
Time TempWeatherWind HumidityBarometerVisibility
10:35 AM
Jul 23
75 °FSunny.10 mph57%29.97 "Hg10 mi
10:15 AM75 °FSunny.12 mph57%29.98 "Hg10 mi
9:55 AM73 °FSunny.12 mph61%29.99 "Hg10 mi
9:35 AM72 °FSunny.14 mph65%29.99 "Hg10 mi
9:15 AM72 °FSunny.16 mph65%30.00 "Hg10 mi
8:55 AM70 °FSunny.14 mph64%30.01 "Hg10 mi
8:35 AM68 °FSunny.14 mph69%30.02 "Hg10 mi
8:15 AM66 °FSunny.16 mph73%30.02 "Hg10 mi
7:55 AM66 °FSunny.16 mph73%30.03 "Hg10 mi
7:35 AM64 °FSunny.15 mph78%30.03 "Hg10 mi
6:55 AM61 °FSunny.14 mph83%30.03 "Hg10 mi
6:35 AM61 °FSunny.10 mph83%30.05 "Hg10 mi
6:15 AM61 °FSunny.8 mph83%30.05 "Hg10 mi
5:35 AM61 °FClear.8 mph83%30.06 "Hg10 mi
4:55 AM59 °FClear.8 mph88%30.07 "Hg10 mi
4:35 AM61 °FClear.7 mph83%30.08 "Hg10 mi
3:55 AM63 °FPassing clouds.5 mph83%30.10 "Hg10 mi
3:15 AM63 °FClear.5 mph83%30.09 "Hg10 mi
2:15 AM64 °FMostly cloudy.8 mph78%30.08 "Hg10 mi
10:35 PM
Jul 22
64 °FClear.9 mph73%30.10 "Hg10 mi
9:55 PM66 °FClear.12 mph68%30.10 "Hg10 mi
9:15 PM66 °FSunny.13 mph68%30.10 "Hg10 mi
8:55 PM66 °FSunny.13 mph68%30.08 "Hg10 mi
8:35 PM66 °FSunny.14 mph68%30.09 "Hg10 mi
8:15 PM66 °FSunny.14 mph68%30.09 "Hg10 mi
7:55 PM68 °FSunny.12 mph69%30.10 "Hg10 mi
7:35 PM70 °FSunny.8 mph64%30.09 "Hg10 mi
7:15 PM70 °FSunny.12 mph64%30.08 "Hg10 mi
6:55 PM72 °FSunny.12 mph61%30.10 "Hg10 mi
6:35 PM73 °FSunny.14 mph57%30.09 "Hg10 mi
6:15 PM72 °FSunny.13 mph61%30.10 "Hg10 mi
5:55 PM73 °FSunny.14 mph57%30.09 "Hg10 mi
4:55 PM72 °FSunny.12 mph65%30.12 "Hg10 mi
Weather by CustomWeather, © 2014

See weather overviewHow to use our weather pages